[[{"header":{"parameterUnit":"m.s-1","parameterCategory":2,"la1":30.2991,"la2":30.254,"lo1":-89.0895,"lo2":-89.0444,"dy":0.0017,"dx":0.0017,"nx":28,"ny":28,"refTime":"2024-02-05T09:00:00:Z","depth":"0","parameterNumber":2,"parameterNumberName":"U-component_of_CURRENTS"},"data":[0,0,0,0,0,0,0,0,0,0,0,0,0,0,0,0,0,0,0,0,0,0,0,0,0,0,0,0,0,0,0,0,0,0,0,0,0,0,0,0,0,0,0,0,0,0,0,0,0,0,0,0,0,0,0,0,0,0,0.3102,0.3104,0,0.3175,0.3175,0.3175,0.3138,0.3137,0.3136,0.3134,0.3129,0.3129,0.313,0,0,0,0,0,0,0,0,0,0,0,0,0,0.2961,0.2962,0.3102,0.3104,0.3105,0.3175,0.3175,0.3175,0.3138,0.3137,0.3135,0.3134,0.3128,0.3129,0.3131,0,0,0,0,0,0,0,0,0,0,0,0,0,0.3019,0.2963,0.3102,0.3101,0.3102,0.3175,0.3175,0.3175,0.3139,0.3137,0.3135,0.3133,0.3128,0.3129,0.3131,0.3177,0,0,0.3135,0.3136,0,0,0,0,0,0,0,0,0.3016,0.3023,0.3099,0.3101,0.3103,0.3152,0.3123,0.3175,0.3139,0.3117,0.3134,0.3132,0.3135,0.3136,0.3144,0.3177,0.3176,0.3135,0.3136,0.3137,0.3137,0,0,0,0,0,0,0,0.3012,0.302,0.3123,0.3101,0.3103,0.3107,0.3112,0.3133,0.3128,0.3119,0.3118,0.3139,0.3134,0.3143,0.3144,0.3176,0.3135,0.3137,0.3138,0.3138,0.3259,0.3261,0,0,0,0,0,0,0.3019,0.3017,0.3121,0.3126,0.3062,0.3112,0.3117,0.3132,0.313,0.313,0.314,0.3137,0.3141,0.3142,0.3143,0.3193,0.3137,0.3138,0.3139,0.3256,0.3259,0.3262,0,0,0,0,0,0,0.3016,0.3027,0.3118,0.3079,0.3092,0.3117,0.3133,0.3134,0.315,0.3148,0.3145,0.3155,0.314,0.3141,0.317,0.3192,0.3139,0.314,0.3254,0.3257,0.326,0.3294,0,0,0,0,0,0,0.3011,0.3025,0.3032,0.308,0.3095,0.316,0.3136,0.3137,0.3168,0.3164,0.3161,0.3158,0.3139,0.3168,0.3171,0.3193,0.3141,0.3251,0.3255,0.3259,0.329,0.3299,0.3306,0,0,0,0,0,0.3006,0.3022,0.3032,0.3044,0.3105,0.3162,0.3169,0.3175,0.3171,0.318,0.3184,0.3158,0.3197,0.3171,0.3174,0.3197,0.3249,0.3254,0.3259,0.3287,0.3297,0.3305,0,0,0,0,0,0,0.2964,0.3022,0.3033,0.3066,0.3112,0.3158,0.3171,0.3191,0.3204,0.3193,0.3188,0.3186,0.3218,0.3217,0.3188,0.3249,0.322,0.3226,0.324,0.325,0.3257,0.3279,0.3143,0,0,0,0,0,0.2963,0.2989,0.3048,0.3078,0.3099,0.3142,0.3166,0.3177,0.3204,0.3207,0.3217,0.3228,0.3246,0.3253,0.3265,0.3304,0.3328,0.3325,0.3332,0.3338,0.3362,0.3422,0.3437,0.3279,0.3279,0.3279,0,0,0.2959,0.2995,0.301,0.3071,0.3102,0.3148,0.3148,0.3189,0.3225,0.3207,0.3248,0.3254,0.3264,0.3296,0.3312,0.3295,0.3398,0.3345,0.335,0.3371,0.3429,0.3444,0.3458,0.3282,0.3282,0.3281,0,0,0.2972,0.2994,0.3021,0.3062,0.312,0.3152,0.3171,0.3227,0.324,0.3288,0.3286,0.3318,0.3342,0.3361,0.3371,0.344,0.3436,0.344,0.3493,0.355,0.3563,0.3575,0.3626,0.3642,0.3443,0.3443,0.3443,0,0.2959,0.3007,0.304,0.3082,0.3119,0.316,0.3203,0.3236,0.3296,0.3323,0.3298,0.3376,0.3377,0.344,0.3459,0.3456,0.3487,0.3447,0.3559,0.3571,0.3583,0.3632,0.3649,0.3445,0.3445,0.3445,0.3444,0,0.2999,0.3037,0.3059,0.3123,0.3167,0.3208,0.3268,0.3309,0.3333,0.337,0.3432,0.3445,0.3494,0.3499,0.3496,0.3587,0.3582,0.3557,0.3528,0.36,0.3648,0.3665,0.3448,0.3447,0.3447,0.3446,0,0,0.2963,0.3063,0.3067,0.3106,0.3187,0.3228,0.3297,0.3373,0.3422,0.3465,0.3538,0.3574,0.3591,0.3609,0.3617,0.3667,0.3767,0.3653,0.3655,0.3692,0.3899,0.3868,0.3883,0.3758,0.3761,0.3764,0.3898,0,0.2978,0.3052,0.3103,0.318,0.3226,0.3287,0.3353,0.3425,0.3472,0.3551,0.3591,0.3651,0.363,0.3656,0.3709,0.3759,0.3816,0.3734,0.3835,0.3839,0.3793,0.3904,0.3786,0.3894,0.3915,0.3918,0.392,0,0.2994,0.3046,0.3112,0.3217,0.3241,0.3291,0.3394,0.3457,0.3572,0.3611,0.3686,0.3725,0.383,0.3786,0.3919,0.3867,0.39,0.3925,0.3929,0.3905,0.3841,0.3829,0.3925,0.3874,0.3947,0.3945,0.3943,0,0.2949,0.305,0.3099,0.3133,0.3256,0.3297,0.336,0.3469,0.3534,0.3659,0.3721,0.3829,0.3896,0.3963,0.4034,0.3985,0.4175,0.4102,0.4106,0.4103,0.4029,0.4014,0.408,0.4203,0.4203,0.4202,0.4202,0,0.2943,0.2986,0.308,0.3108,0.3177,0.3269,0.3347,0.3428,0.3556,0.3651,0.3747,0.385,0.3946,0.4062,0.4095,0.4181,0.4228,0.4157,0.4153,0.4037,0.4022,0.3992,0.3952,0.4207,0.4206,0.4205,0.4204,0,0.29,0.2955,0.3021,0.3127,0.3158,0.3205,0.3333,0.34,0.3522,0.3655,0.3709,0.3898,0.4052,0.4148,0.4279,0.4259,0.4236,0.4347,0.4207,0.4184,0.4086,0.4051,0.3947,0.3822,0.4359,0.4359,0.4359,0,0.2893,0.2921,0.3008,0.304,0.3086,0.3164,0.3227,0.3361,0.344,0.3685,0.3756,0.3964,0.4095,0.429,0.4324,0.4399,0.4273,0.4306,0.418,0.4109,0.4068,0.3872,0.3759,0.4097,0.4096,0.4094,0.4093,0,0.2883,0.29,0.2941,0.2994,0.3047,0.3124,0.3221,0.3275,0.3455,0.3567,0.3763,0.3898,0.4128,0.4182,0.4294,0.4309,0.4116,0.4272,0.4241,0.3925,0.3675,0.3542,0.398,0.4079,0.408,0.4081,0.4082,0.4082,0.2854,0.2864,0.2896,0.2943,0.2997,0.3058,0.3071,0.3183,0.3279,0.3407,0.3638,0.377,0.399,0.4135,0.4141,0.411,0.4022,0.4004,0.3988,0.3811,0.3624,0.4036,0.4096,0.4097,0.4098,0.4099,0.41,0,0.2796,0.2808,0.2854,0.2871,0.2884,0.2962,0.3043,0.3024,0.3054,0.3258,0.3369,0.36,0.3698,0.3864,0.3977,0.3877,0.3636,0.3782,0.3497,0.3412,0.3848,0.3772,0.3713,0.3713,0.3713,0.3713,0.3713,0.3713,0.2759,0.2745,0.2763,0.2741,0.2764,0.2727,0.2742,0.273,0.2822,0.2918,0.3054,0.3229,0.3616,0.3856,0.3861,0.375,0.3464,0.3303,0.3266,0.3631,0.3649,0.3666,0.3588,0.3491,0.349,0.2676,0.2671,0.2667]},{"header":{"parameterUnit":"m.s-1","parameterCategory":2,"la1":30.2991,"la2":30.254,"lo1":-89.0895,"lo2":-89.0444,"dy":0.0017,"dx":0.0017,"nx":28,"ny":28,"refTime":"2024-02-05T09:00:00:Z","depth":"0","parameterNumber":3,"parameterNumberName":"V-component_of_CURRENTS"},"data":[0,0,0,0,0,0,0,0,0,0,0,0,0,0,0,0,0,0,0,0,0,0,0,0,0,0,0,0,0,0,0,0,0,0,0,0,0,0,0,0,0,0,0,0,0,0,0,0,0,0,0,0,0,0,0,0,0,0,-0.047,-0.0472,0,-0.0592,-0.0593,-0.0593,-0.0612,-0.0612,-0.0612,-0.0612,-0.0754,-0.0757,-0.0761,0,0,0,0,0,0,0,0,0,0,0,0,0,-0.0317,-0.0319,-0.0469,-0.0472,-0.0475,-0.0592,-0.0593,-0.0593,-0.0612,-0.0612,-0.0612,-0.0612,-0.0752,-0.0757,-0.0761,0,0,0,0,0,0,0,0,0,0,0,0,0,-0.0395,-0.0319,-0.0469,-0.0507,-0.0512,-0.0592,-0.0593,-0.0593,-0.0612,-0.0612,-0.0612,-0.0612,-0.0751,-0.0756,-0.0762,-0.0797,0,0,-0.0779,-0.0782,0,0,0,0,0,0,0,0,-0.039,-0.0398,-0.0499,-0.0505,-0.0511,-0.0597,-0.0592,-0.0667,-0.0612,-0.0562,-0.0612,-0.0612,-0.0711,-0.072,-0.0726,-0.0804,-0.081,-0.078,-0.0783,-0.0786,-0.0787,0,0,0,0,0,0,0,-0.0385,-0.0394,-0.0506,-0.0502,-0.0509,-0.0542,-0.055,-0.0605,-0.0626,-0.0566,-0.0571,-0.0603,-0.0713,-0.072,-0.0729,-0.0812,-0.078,-0.0785,-0.0788,-0.079,-0.0904,-0.0903,0,0,0,0,0,0,-0.039,-0.0389,-0.0502,-0.0511,-0.0463,-0.0545,-0.0554,-0.056,-0.0625,-0.0638,-0.0603,-0.0604,-0.071,-0.0723,-0.0735,-0.0747,-0.0786,-0.0791,-0.0794,-0.0904,-0.0904,-0.0903,0,0,0,0,0,0,-0.0386,-0.0398,-0.0498,-0.0464,-0.048,-0.0548,-0.0554,-0.0563,-0.0574,-0.0655,-0.0666,-0.0608,-0.0711,-0.0727,-0.0757,-0.0754,-0.0793,-0.0799,-0.0905,-0.0904,-0.0904,-0.0793,0,0,0,0,0,0,-0.038,-0.0394,-0.0388,-0.0463,-0.0483,-0.0525,-0.0556,-0.0565,-0.06,-0.0601,-0.0663,-0.0676,-0.0712,-0.0747,-0.0762,-0.0762,-0.0803,-0.0905,-0.0904,-0.0904,-0.0798,-0.0789,-0.0782,0,0,0,0,0,-0.0374,-0.0362,-0.0386,-0.0401,-0.0474,-0.0525,-0.0535,-0.0578,-0.06,-0.0589,-0.0625,-0.0674,-0.0754,-0.0751,-0.0769,-0.0771,-0.0905,-0.0905,-0.0904,-0.0801,-0.0791,-0.0782,0,0,0,0,0,0,-0.0291,-0.0366,-0.0394,-0.0404,-0.0457,-0.0533,-0.0534,-0.0578,-0.0598,-0.0594,-0.0665,-0.0679,-0.0703,-0.0755,-0.075,-0.0802,-0.0841,-0.0844,-0.0757,-0.0748,-0.0741,-0.0717,-0.0808,0,0,0,0,0,-0.0275,-0.0283,-0.0365,-0.0374,-0.0393,-0.0465,-0.0492,-0.0522,-0.0567,-0.0575,-0.063,-0.068,-0.0715,-0.0743,-0.078,-0.0814,-0.085,-0.0829,-0.0821,-0.0814,-0.0808,-0.0863,-0.0859,-0.09,-0.09,-0.09,0,0,-0.0254,-0.0295,-0.0303,-0.0358,-0.0396,-0.0411,-0.0475,-0.0503,-0.0513,-0.059,-0.0605,-0.0653,-0.0715,-0.0734,-0.0753,-0.0778,-0.0814,-0.0813,-0.0806,-0.0804,-0.0861,-0.0857,-0.0854,-0.09,-0.09,-0.09,0,0,-0.0214,-0.0241,-0.0233,-0.0266,-0.0326,-0.0366,-0.0375,-0.0447,-0.0464,-0.0495,-0.0544,-0.0587,-0.0656,-0.0694,-0.0723,-0.0705,-0.0764,-0.0724,-0.0676,-0.0729,-0.0725,-0.0723,-0.0726,-0.0725,-0.0728,-0.0728,-0.0728,0,-0.0179,-0.0187,-0.024,-0.024,-0.0263,-0.0342,-0.0336,-0.0365,-0.0439,-0.0452,-0.0481,-0.0576,-0.0636,-0.0664,-0.0651,-0.0688,-0.0708,-0.0701,-0.0717,-0.0716,-0.0715,-0.0719,-0.072,-0.0723,-0.0723,-0.0724,-0.0725,0,-0.0139,-0.0143,-0.0138,-0.0161,-0.0183,-0.019,-0.0249,-0.0265,-0.031,-0.0357,-0.0396,-0.0473,-0.0532,-0.0563,-0.0601,-0.0629,-0.0638,-0.0691,-0.0734,-0.0704,-0.071,-0.0712,-0.0715,-0.0717,-0.0719,-0.072,0,0,-0.0064,-0.01,-0.0097,-0.0094,-0.0139,-0.0152,-0.0153,-0.0185,-0.0182,-0.0259,-0.027,-0.0351,-0.0408,-0.0446,-0.0514,-0.0568,-0.0578,-0.062,-0.0625,-0.0609,-0.0651,-0.0623,-0.0624,-0.0632,-0.0633,-0.0634,-0.0642,0,-0.0014,0.001,-0.0026,-0.0003,0.0004,-0.0049,-0.0042,-0.0077,-0.012,-0.0145,-0.0238,-0.0272,-0.0359,-0.0383,-0.045,-0.0549,-0.0585,-0.0568,-0.0694,-0.0697,-0.0668,-0.0627,-0.0591,-0.0594,-0.0644,-0.0645,-0.0645,0,0.0039,0.0045,0.0083,0.0078,0.0081,0.0088,0.0089,0.0081,0.0031,-0.0004,-0.0068,-0.014,-0.0221,-0.0303,-0.0451,-0.0433,-0.0524,-0.0605,-0.0609,-0.0627,-0.0675,-0.0643,-0.0597,-0.0811,-0.0649,-0.0649,-0.0649,0,0.0114,0.0121,0.0159,0.0157,0.0145,0.0163,0.0158,0.0128,0.0141,0.0083,0.0083,-0.0035,-0.0073,-0.0226,-0.0388,-0.042,-0.0538,-0.0611,-0.0663,-0.0661,-0.0678,-0.0676,-0.0848,-0.0704,-0.0704,-0.0704,-0.0704,0,0.0177,0.0201,0.0201,0.0221,0.0278,0.0241,0.0294,0.0268,0.0257,0.0302,0.0161,0.0177,-0.0057,-0.0153,-0.0331,-0.048,-0.0495,-0.0633,-0.0665,-0.0634,-0.0628,-0.0856,-0.0978,-0.0704,-0.0704,-0.0704,-0.0704,0,0.0239,0.0238,0.028,0.0298,0.0311,0.0351,0.0384,0.0423,0.0395,0.045,0.0444,0.0346,0.0233,0.0013,-0.0207,-0.0373,-0.065,-0.0596,-0.0513,-0.0535,-0.0795,-0.0909,-0.1096,-0.1174,-0.0657,-0.0657,-0.0656,0,0.0267,0.03,0.035,0.0391,0.0402,0.0455,0.0501,0.0491,0.0546,0.0575,0.0623,0.0541,0.0526,0.0216,-0.0101,-0.0377,-0.0596,-0.053,-0.0605,-0.0785,-0.0939,-0.1033,-0.1093,-0.0571,-0.057,-0.0569,-0.0568,0,0.0326,0.0351,0.0393,0.0486,0.0545,0.0613,0.0684,0.0759,0.0789,0.086,0.0958,0.0955,0.0671,0.0408,0.0013,-0.0197,-0.0668,-0.0517,-0.0752,-0.0912,-0.0982,-0.1077,-0.0562,-0.056,-0.056,-0.0561,-0.0562,-0.0562,0.0378,0.0425,0.0498,0.0588,0.0669,0.0788,0.088,0.0984,0.1128,0.1268,0.1239,0.1293,0.0869,0.0336,0.0001,-0.0578,-0.0611,-0.0767,-0.0892,-0.0971,-0.1055,-0.0485,-0.0498,-0.0498,-0.0499,-0.0499,-0.05,0,0.0448,0.0505,0.0594,0.0716,0.0838,0.0855,0.1021,0.1139,0.1361,0.149,0.159,0.1465,0.0927,0.036,-0.0432,-0.0883,-0.106,-0.1133,-0.1296,-0.1341,-0.0874,-0.0881,-0.092,-0.092,-0.0919,-0.0919,-0.0919,-0.0919,0.0487,0.059,0.064,0.0853,0.0949,0.1126,0.1241,0.1423,0.1567,0.1779,0.1856,0.1853,0.1468,-0.0032,-0.1073,-0.1319,-0.1644,-0.1707,-0.1883,-0.1614,-0.1591,-0.157,-0.1608,-0.1798,-0.1799,-0.2288,-0.2293,-0.2297]}],[{"header":{"parameterUnit":"m.s-1","parameterCategory":2,"la1":30.2991,"la2":30.254,"lo1":-89.0895,"lo2":-89.0444,"dy":0.0017,"dx":0.0017,"nx":28,"ny":28,"refTime":"2024-02-05T09:00:00:Z","depth":"2","parameterNumber":2,"parameterNumberName":"U-component_of_CURRENTS"},"data":[0,0,0,0,0,0,0,0,0,0,0,0,0,0,0,0,0,0,0,0,0,0,0,0,0,0,0,0,0,0,0,0,0,0,0,0,0,0,0,0,0,0,0,0,0,0,0,0,0,0,0,0,0,0,0,0,0,0,0.2531,0.253,0,0.2577,0.2579,0.2581,0.267,0.267,0.267,0.267,0.2731,0.2733,0.2734,0,0,0,0,0,0,0,0,0,0,0,0,0,0.2541,0.2542,0.2531,0.253,0.2529,0.2577,0.2579,0.2582,0.267,0.267,0.267,0.267,0.2731,0.2732,0.2734,0,0,0,0,0,0,0,0,0,0,0,0,0,0.2573,0.2542,0.2532,0.2567,0.2569,0.2577,0.2579,0.2582,0.267,0.267,0.267,0.2671,0.273,0.2732,0.2734,0.2743,0,0,0.2741,0.2742,0,0,0,0,0,0,0,0,0.2571,0.2575,0.2562,0.2564,0.2566,0.2603,0.2604,0.2631,0.267,0.265,0.267,0.2671,0.2678,0.2685,0.2717,0.2746,0.2748,0.2741,0.2743,0.2744,0.2744,0,0,0,0,0,0,0,0.2569,0.2573,0.2567,0.2561,0.2563,0.2586,0.2593,0.2611,0.2676,0.2651,0.2654,0.2631,0.2682,0.2715,0.2719,0.2749,0.2741,0.2743,0.2745,0.2745,0.2869,0.2871,0,0,0,0,0,0,0.2527,0.2571,0.2565,0.2567,0.255,0.2584,0.2592,0.2605,0.2675,0.2681,0.2631,0.2635,0.2711,0.2716,0.2721,0.2809,0.2744,0.2746,0.2747,0.2868,0.287,0.2872,0,0,0,0,0,0,0.2528,0.2528,0.2563,0.2554,0.2558,0.2582,0.2596,0.2605,0.2667,0.2656,0.2666,0.2684,0.2711,0.2718,0.2775,0.2809,0.2747,0.2749,0.2865,0.2868,0.2871,0.2937,0,0,0,0,0,0,0.2529,0.2529,0.2541,0.2552,0.2556,0.2616,0.2595,0.2606,0.2642,0.265,0.2704,0.2708,0.2712,0.2772,0.2777,0.2811,0.275,0.2863,0.2867,0.287,0.2932,0.2942,0.295,0,0,0,0,0,0.253,0.2543,0.2543,0.2541,0.2568,0.2617,0.2627,0.2653,0.2644,0.2705,0.2723,0.2708,0.2799,0.2776,0.2781,0.2816,0.2861,0.2865,0.287,0.2928,0.294,0.295,0,0,0,0,0,0,0.2548,0.2551,0.2552,0.2565,0.2605,0.2627,0.2657,0.267,0.2735,0.2735,0.2737,0.2746,0.2803,0.2805,0.2779,0.2864,0.2826,0.2831,0.2868,0.2879,0.2888,0.2885,0.2752,0,0,0,0,0,0.2551,0.257,0.2585,0.2599,0.2619,0.2645,0.2666,0.2689,0.2723,0.2754,0.2768,0.2789,0.2822,0.2848,0.2871,0.2923,0.2931,0.2949,0.2957,0.2965,0.2968,0.3018,0.3032,0.2887,0.2887,0.2887,0,0,0.2555,0.2555,0.2566,0.2604,0.2633,0.2671,0.2668,0.2715,0.2751,0.2744,0.2803,0.2818,0.2841,0.2899,0.2925,0.291,0.3014,0.2971,0.2977,0.2975,0.3024,0.3038,0.3051,0.289,0.2889,0.2889,0,0,0.2566,0.2587,0.2612,0.2649,0.2683,0.2706,0.2725,0.2766,0.2806,0.2856,0.2855,0.2894,0.2938,0.2966,0.2983,0.3055,0.3053,0.3066,0.3118,0.3168,0.318,0.3191,0.323,0.3244,0.3079,0.3079,0.3079,0,0.2573,0.2599,0.2632,0.2664,0.2685,0.2723,0.2766,0.2814,0.2863,0.289,0.2884,0.2953,0.2966,0.3041,0.3069,0.3073,0.3103,0.3075,0.3179,0.319,0.32,0.3237,0.3251,0.3082,0.3082,0.3082,0.3081,0,0.2598,0.2631,0.2653,0.2704,0.2749,0.2796,0.2844,0.2898,0.292,0.2946,0.3021,0.3049,0.3097,0.3107,0.3112,0.3197,0.3196,0.3178,0.3149,0.3218,0.3254,0.3267,0.3088,0.3086,0.3085,0.3084,0,0,0.2583,0.2658,0.2664,0.2699,0.2775,0.2811,0.2885,0.2961,0.3007,0.3054,0.3118,0.3171,0.3189,0.3211,0.323,0.3269,0.3362,0.3265,0.3266,0.3299,0.3483,0.3458,0.347,0.3374,0.3376,0.3378,0.3484,0,0.26,0.2655,0.2692,0.2761,0.2808,0.2869,0.293,0.3,0.3065,0.3137,0.3184,0.3246,0.3234,0.3271,0.3318,0.3354,0.3401,0.3335,0.3415,0.3418,0.3383,0.3486,0.3223,0.3294,0.3497,0.3499,0.35,0,0.2607,0.2648,0.2712,0.2797,0.2823,0.2867,0.2976,0.3043,0.3155,0.3206,0.3288,0.3328,0.342,0.3384,0.3496,0.3465,0.3486,0.3495,0.3499,0.3459,0.3418,0.3256,0.331,0.3523,0.3521,0.3519,0.3518,0,0.2571,0.2657,0.2706,0.2736,0.2839,0.2884,0.2946,0.3058,0.3131,0.3265,0.3327,0.343,0.3502,0.3549,0.3599,0.3563,0.3703,0.365,0.3642,0.3639,0.3421,0.3396,0.3716,0.3716,0.3716,0.3716,0.3715,0,0.2561,0.2603,0.2693,0.2719,0.2786,0.287,0.2963,0.304,0.3173,0.3263,0.3368,0.3458,0.355,0.3641,0.3653,0.3716,0.3759,0.3675,0.3678,0.3439,0.3415,0.3605,0.3591,0.372,0.3719,0.3718,0.3717,0,0.2519,0.2573,0.2639,0.2742,0.2771,0.2825,0.296,0.3033,0.3163,0.3295,0.3343,0.3513,0.3636,0.3714,0.3805,0.3793,0.3834,0.3833,0.3551,0.3519,0.3717,0.3705,0.3835,0.3836,0.3836,0.3836,0.3836,0,0.2509,0.2536,0.2634,0.2667,0.2715,0.2807,0.287,0.3011,0.3094,0.3315,0.3368,0.3548,0.3653,0.3806,0.3816,0.3861,0.3876,0.3623,0.3495,0.3747,0.3736,0.3723,0.3712,0.323,0.3226,0.3222,0.3219,0,0.2497,0.2526,0.2564,0.2626,0.2688,0.276,0.286,0.2909,0.3086,0.3194,0.3343,0.3451,0.3645,0.3599,0.3689,0.3658,0.3597,0.3546,0.3898,0.3251,0.3188,0.3173,0.3179,0.3183,0.3187,0.319,0.3191,0.3193,0.2474,0.249,0.2528,0.2577,0.2636,0.2677,0.2694,0.2796,0.2882,0.2998,0.3188,0.3262,0.3373,0.3379,0.3311,0.3261,0.3488,0.3313,0.332,0.3332,0.3254,0.3196,0.3178,0.3181,0.3184,0.3186,0.3188,0,0.2433,0.2445,0.2484,0.2519,0.2526,0.2599,0.2655,0.2636,0.2663,0.2826,0.2925,0.2775,0.2805,0.2893,0.2798,0.2837,0.2743,0.2695,0.2542,0.2584,0.2619,0.2496,0.2223,0.2219,0.2215,0.2212,0,0,0.2409,0.2398,0.2408,0.2384,0.2413,0.2379,0.2373,0.2356,0.2414,0.2405,0.2439,0.2681,0.2849,0.2486,0.2476,0.2336,0.2419,0.2242,0.3035,0.29,0.2929,0.3018,0.2884,0,0,0,0,0]},{"header":{"parameterUnit":"m.s-1","parameterCategory":2,"la1":30.2991,"la2":30.254,"lo1":-89.0895,"lo2":-89.0444,"dy":0.0017,"dx":0.0017,"nx":28,"ny":28,"refTime":"2024-02-05T09:00:00:Z","depth":"2","parameterNumber":3,"parameterNumberName":"V-component_of_CURRENTS"},"data":[0,0,0,0,0,0,0,0,0,0,0,0,0,0,0,0,0,0,0,0,0,0,0,0,0,0,0,0,0,0,0,0,0,0,0,0,0,0,0,0,0,0,0,0,0,0,0,0,0,0,0,0,0,0,0,0,0,0,0.0082,0.0083,0,0.0021,0.0019,0.0016,-0.0126,-0.0127,-0.0128,-0.0129,-0.025,-0.0252,-0.0254,0,0,0,0,0,0,0,0,0,0,0,0,0,0.0039,0.0039,0.0082,0.0083,0.0084,0.0022,0.0019,0.0016,-0.0126,-0.0127,-0.0129,-0.013,-0.0249,-0.0252,-0.0254,0,0,0,0,0,0,0,0,0,0,0,0,0,0.0005,0.0038,0.0082,0.0022,0.0017,0.0022,0.0019,0.0015,-0.0126,-0.0127,-0.0129,-0.013,-0.0248,-0.0251,-0.0255,-0.0246,0,0,-0.0265,-0.0267,0,0,0,0,0,0,0,0,0.0007,0.0004,0.0029,0.0026,0.0022,-0.0028,-0.004,-0.0068,-0.0126,-0.0094,-0.0129,-0.0131,-0.0166,-0.0176,-0.0214,-0.0252,-0.0257,-0.0266,-0.0268,-0.0269,-0.027,0,0,0,0,0,0,0,0.001,0.0006,0.0036,0.0031,0.0027,-0.0012,-0.0021,-0.0047,-0.0139,-0.0097,-0.0102,-0.0074,-0.0172,-0.0211,-0.0218,-0.0259,-0.0266,-0.0269,-0.0271,-0.0272,-0.0333,-0.0332,0,0,0,0,0,0,0.0065,0.0009,0.0038,0.0036,0.0035,-0.0009,-0.002,-0.0028,-0.0138,-0.0149,-0.0073,-0.008,-0.0204,-0.0214,-0.0222,-0.025,-0.0269,-0.0272,-0.0274,-0.0333,-0.0333,-0.0332,0,0,0,0,0,0,0.0063,0.0066,0.0041,0.004,0.0037,-0.0004,-0.0014,-0.0028,-0.0091,-0.0114,-0.0132,-0.012,-0.0206,-0.0217,-0.0259,-0.0255,-0.0274,-0.0277,-0.0334,-0.0333,-0.0333,-0.0285,0,0,0,0,0,0,0.0061,0.0064,0.0066,0.0043,0.004,0.0019,-0.0011,-0.0027,-0.0058,-0.0071,-0.0159,-0.0172,-0.0208,-0.0254,-0.0263,-0.026,-0.028,-0.0334,-0.0334,-0.0333,-0.0287,-0.0283,-0.0279,0,0,0,0,0,0.0059,0.0072,0.0065,0.007,0.0045,0.002,0.001,-0.0037,-0.0059,-0.01,-0.0142,-0.017,-0.0255,-0.0256,-0.0267,-0.0265,-0.0335,-0.0334,-0.0333,-0.0289,-0.0284,-0.0279,0,0,0,0,0,0,0.0059,0.0061,0.0051,0.0065,0.0039,0.0004,-0.0007,-0.0042,-0.0111,-0.0116,-0.017,-0.0185,-0.0214,-0.0244,-0.0245,-0.0278,-0.0297,-0.0298,-0.026,-0.0256,-0.0252,-0.0218,-0.0283,0,0,0,0,0,0.007,0.007,0.006,0.007,0.0062,0.0021,0.0007,-0.0025,-0.0066,-0.0102,-0.0141,-0.0181,-0.0213,-0.024,-0.0268,-0.0292,-0.0316,-0.0295,-0.0291,-0.0288,-0.0267,-0.0312,-0.0311,-0.0329,-0.0329,-0.0329,0,0,0.0082,0.0086,0.0087,0.0071,0.0048,0.0046,-0.0001,-0.0019,-0.0026,-0.0095,-0.0124,-0.0165,-0.0214,-0.0239,-0.0255,-0.027,-0.0294,-0.0286,-0.0283,-0.0264,-0.0311,-0.0309,-0.0308,-0.0328,-0.0328,-0.0329,0,0,0.0116,0.0098,0.0108,0.0092,0.0084,0.0059,0.0054,0.0015,-0.0022,-0.0047,-0.0086,-0.012,-0.0178,-0.0204,-0.0228,-0.0215,-0.0265,-0.0234,-0.0198,-0.0243,-0.0242,-0.0241,-0.0267,-0.0269,-0.0241,-0.0241,-0.0241,0,0.0131,0.0144,0.0106,0.0116,0.0126,0.0069,0.0081,0.0041,-0.0003,-0.0011,-0.0047,-0.011,-0.0153,-0.0177,-0.0178,-0.0204,-0.024,-0.0216,-0.0238,-0.0238,-0.0238,-0.0264,-0.0267,-0.0238,-0.0239,-0.0239,-0.0239,0,0.0175,0.0181,0.0188,0.0182,0.017,0.0171,0.0142,0.0119,0.0084,0.0056,0.0021,-0.0043,-0.0083,-0.0105,-0.0143,-0.0161,-0.0189,-0.0222,-0.0249,-0.0233,-0.0262,-0.0266,-0.0235,-0.0236,-0.0237,-0.0237,0,0,0.0222,0.0218,0.0222,0.0233,0.0209,0.0208,0.0204,0.0184,0.019,0.0126,0.0125,0.0057,0.0013,-0.0015,-0.0071,-0.0113,-0.0147,-0.017,-0.0174,-0.0193,-0.0245,-0.0253,-0.0258,-0.0204,-0.0204,-0.0204,-0.0265,0,0.0266,0.0306,0.0289,0.0323,0.0335,0.0297,0.0305,0.0282,0.024,0.0224,0.0148,0.0124,0.0045,0.0024,-0.0034,-0.0109,-0.0156,-0.0127,-0.0259,-0.0262,-0.027,-0.0262,-0.0227,-0.0278,-0.0268,-0.0269,-0.027,0,0.0318,0.0338,0.0382,0.04,0.0404,0.0418,0.0423,0.042,0.0378,0.0346,0.0288,0.0223,0.0163,0.009,-0.0045,-0.0033,-0.013,-0.0197,-0.0202,-0.0223,-0.0277,-0.0293,-0.0285,-0.0276,-0.0276,-0.0275,-0.0275,0,0.0378,0.0405,0.0447,0.0453,0.0462,0.0482,0.0486,0.0462,0.0475,0.0425,0.0424,0.0317,0.0283,0.0139,-0.0012,-0.0039,-0.0157,-0.0212,-0.0308,-0.0309,-0.0307,-0.0307,-0.0305,-0.0305,-0.0305,-0.0305,-0.0305,0,0.0438,0.047,0.0481,0.0507,0.0568,0.0549,0.0597,0.0585,0.0579,0.062,0.049,0.0498,0.029,0.0188,0.0026,-0.0141,-0.0137,-0.0286,-0.0324,-0.0289,-0.0287,-0.0309,-0.0308,-0.0307,-0.0307,-0.0306,-0.0306,0,0.0496,0.0501,0.0551,0.058,0.0598,0.0641,0.0684,0.072,0.0696,0.0747,0.0742,0.064,0.051,0.0299,0.0094,-0.0066,-0.0234,-0.0297,-0.0229,-0.0259,-0.0368,-0.0364,-0.0412,-0.0413,-0.0413,-0.0414,-0.0414,0,0.0529,0.0562,0.0616,0.0659,0.0676,0.0732,0.0782,0.0783,0.0837,0.0851,0.09,0.0786,0.0734,0.0416,0.0118,-0.0165,-0.0213,-0.0317,-0.036,-0.0345,-0.0378,-0.0374,-0.0369,-0.034,-0.034,-0.034,-0.034,0,0.0592,0.0608,0.0656,0.0745,0.0808,0.0885,0.0962,0.1026,0.1057,0.1099,0.1159,0.1118,0.0811,0.053,0.0128,-0.0062,-0.0274,-0.0322,-0.0327,-0.0315,-0.0282,-0.0313,-0.031,-0.0338,-0.0338,-0.0339,-0.0339,-0.0339,0.0642,0.0686,0.0751,0.0843,0.0924,0.1043,0.1125,0.1216,0.1327,0.1408,0.1371,0.1317,0.0975,0.0469,0.0111,-0.0266,-0.0255,-0.0383,-0.0382,-0.0382,-0.0359,-0.0329,-0.0389,-0.0389,-0.0389,-0.039,-0.039,0,0.0702,0.0752,0.0842,0.0955,0.1068,0.1095,0.1253,0.1338,0.1488,0.1551,0.1583,0.1294,0.0953,0.0551,-0.001,-0.0342,-0.0373,-0.0439,-0.0409,-0.0407,-0.0406,-0.0385,-0.0422,-0.0423,-0.0424,-0.0425,0,0,0.0731,0.0825,0.0873,0.1064,0.1152,0.1306,0.1407,0.153,0.1612,0.1677,0.1651,0.1565,0.1087,0.0682,0.0218,-0.0109,-0.0179,-0.0166,-0.0101,-0.0008,-0.0004,-0.0332,-0.0291,0,0,0,0,0]}],[{"header":{"parameterUnit":"m.s-1","parameterCategory":2,"la1":30.2991,"la2":30.254,"lo1":-89.0895,"lo2":-89.0444,"dy":0.0017,"dx":0.0017,"nx":28,"ny":28,"refTime":"2024-02-05T09:00:00:Z","depth":"4","parameterNumber":2,"parameterNumberName":"U-component_of_CURRENTS"},"data":[0,0,0,0,0,0,0,0,0,0,0,0,0,0,0,0,0,0,0,0,0,0,0,0,0,0,0,0,0,0,0,0,0,0,0,0,0,0,0,0,0,0,0,0,0,0,0,0,0,0,0,0,0,0,0,0,0,0,0.1556,0.1556,0,0.161,0.1611,0.1611,0.1676,0.1677,0.1678,0.1679,0.1745,0.1746,0.1747,0,0,0,0,0,0,0,0,0,0,0,0,0,0.1474,0.1475,0.1556,0.1556,0.1557,0.161,0.1611,0.1611,0.1676,0.1677,0.1678,0.1679,0.1745,0.1746,0.1747,0,0,0,0,0,0,0,0,0,0,0,0,0,0.1518,0.1476,0.1555,0.1594,0.1598,0.161,0.1611,0.1612,0.1676,0.1677,0.1679,0.168,0.1745,0.1746,0.1747,0.173,0,0,0.1752,0.1752,0,0,0,0,0,0,0,0,0.1516,0.1521,0.1588,0.1592,0.1596,0.1636,0.1606,0.1651,0.1676,0.1648,0.1679,0.168,0.1708,0.1712,0.1722,0.1733,0.1736,0.1752,0.1753,0.1753,0.1754,0,0,0,0,0,0,0,0.1513,0.1519,0.1579,0.1588,0.1593,0.1597,0.1605,0.1615,0.1671,0.1651,0.1655,0.1658,0.1711,0.172,0.1724,0.1737,0.1752,0.1753,0.1754,0.1755,0.1874,0.1876,0,0,0,0,0,0,0.1503,0.1517,0.1577,0.158,0.1556,0.1597,0.1607,0.1623,0.1671,0.1679,0.1657,0.1661,0.1717,0.1722,0.1726,0.1822,0.1753,0.1755,0.1755,0.1872,0.1875,0.1877,0,0,0,0,0,0,0.1502,0.1509,0.1575,0.1547,0.1556,0.1598,0.1616,0.1624,0.1666,0.1676,0.1685,0.1694,0.1718,0.1724,0.1776,0.1821,0.1755,0.1757,0.1869,0.1873,0.1876,0.1941,0,0,0,0,0,0,0.1499,0.1508,0.1535,0.1547,0.1557,0.1612,0.1614,0.1624,0.1663,0.1669,0.1709,0.1715,0.172,0.1775,0.1778,0.1822,0.1758,0.1866,0.1871,0.1875,0.1935,0.1946,0.1955,0,0,0,0,0,0.1496,0.1522,0.1537,0.1545,0.1588,0.1614,0.1621,0.1654,0.1663,0.1694,0.1725,0.1716,0.1805,0.1777,0.1781,0.1826,0.1864,0.1869,0.1875,0.1931,0.1944,0.1954,0,0,0,0,0,0,0.15,0.1531,0.1548,0.1583,0.1611,0.1625,0.1656,0.1668,0.1714,0.1732,0.1737,0.1745,0.1811,0.1809,0.1778,0.1876,0.1836,0.1842,0.1878,0.189,0.1899,0.1905,0.1759,0,0,0,0,0,0.1511,0.1544,0.1567,0.16,0.1617,0.1641,0.1661,0.1684,0.1713,0.1737,0.1762,0.1796,0.1829,0.1852,0.1881,0.1923,0.1927,0.1959,0.1969,0.1977,0.1986,0.2019,0.2032,0.1894,0.1894,0.1894,0,0,0.1519,0.1542,0.1561,0.1604,0.163,0.166,0.1659,0.1703,0.1739,0.1734,0.1806,0.183,0.1849,0.191,0.1939,0.1917,0.2023,0.1983,0.199,0.1995,0.2026,0.2039,0.2051,0.1898,0.1897,0.1897,0,0,0.1537,0.1577,0.1608,0.1637,0.1683,0.1698,0.1716,0.1755,0.1794,0.185,0.1864,0.1914,0.1962,0.1988,0.2002,0.2077,0.2073,0.2098,0.2149,0.2181,0.2192,0.2202,0.2242,0.2254,0.2101,0.2102,0.2102,0,0.155,0.1589,0.1621,0.1656,0.1684,0.1717,0.1752,0.1791,0.1846,0.1881,0.189,0.198,0.1996,0.2058,0.2098,0.2098,0.2122,0.2099,0.2192,0.2202,0.2211,0.2249,0.2262,0.2105,0.2105,0.2104,0.2104,0,0.1582,0.1625,0.1647,0.1704,0.174,0.178,0.1827,0.1883,0.1925,0.1958,0.2046,0.2075,0.2128,0.2146,0.2149,0.2229,0.2229,0.2199,0.2157,0.2228,0.2264,0.2277,0.2111,0.2109,0.2108,0.2107,0,0,0.1572,0.1654,0.1665,0.1698,0.1772,0.1798,0.1875,0.1943,0.1999,0.2065,0.2132,0.22,0.2226,0.2245,0.2259,0.2292,0.2381,0.2287,0.2286,0.2316,0.2475,0.2351,0.2352,0.2373,0.2375,0.2377,0.2481,0,0.1589,0.1653,0.1697,0.1762,0.1794,0.186,0.1923,0.1995,0.2064,0.2143,0.2191,0.2265,0.226,0.2304,0.2339,0.2372,0.2416,0.2357,0.241,0.2412,0.2284,0.2362,0.2384,0.249,0.2492,0.2495,0.2496,0,0.1596,0.1639,0.1704,0.1789,0.1813,0.1867,0.1977,0.2041,0.2154,0.2216,0.2297,0.2338,0.2422,0.2397,0.2491,0.2461,0.2487,0.2498,0.2502,0.2369,0.231,0.2402,0.2518,0.2516,0.2515,0.2513,0.2512,0,0.1548,0.1639,0.1691,0.1722,0.1825,0.1884,0.1952,0.2068,0.2135,0.2274,0.234,0.2429,0.2495,0.2535,0.2582,0.2554,0.2669,0.2619,0.2531,0.2524,0.2573,0.2561,0.2685,0.2685,0.2685,0.2685,0.2684,0,0.1528,0.1568,0.168,0.1708,0.1782,0.187,0.197,0.2058,0.2186,0.2263,0.2378,0.2448,0.2538,0.2609,0.2624,0.2625,0.2707,0.256,0.2544,0.2601,0.2591,0.2583,0.2569,0.2688,0.2688,0.2687,0.2686,0,0.1451,0.1529,0.1589,0.1714,0.176,0.1815,0.1969,0.2031,0.2179,0.2286,0.2337,0.2495,0.2597,0.2667,0.2746,0.2672,0.2683,0.2664,0.2755,0.2739,0.2507,0.2497,0.2565,0.2562,0.2559,0.2556,0.2554,0,0.1411,0.1437,0.1573,0.1617,0.168,0.1783,0.1848,0.2008,0.2072,0.229,0.2319,0.2492,0.2578,0.2597,0.2679,0.271,0.2677,0.266,0.2551,0.2518,0.2497,0.2491,0.2484,0.2549,0.2549,0.2548,0.2547,0,0.1327,0.1392,0.1449,0.1535,0.1615,0.1688,0.1799,0.1838,0.2015,0.2165,0.2262,0.2335,0.2455,0.2519,0.2577,0.2582,0.2649,0.2628,0.2633,0.253,0.25,0.248,0.2477,0.2537,0.2538,0.2539,0.254,0,0.127,0.1283,0.1369,0.1437,0.1527,0.1567,0.1646,0.1731,0.182,0.2053,0.2083,0.2274,0.2429,0.2457,0.2502,0.2512,0.2465,0.2357,0.2375,0.2387,0.228,0.2214,0.2165,0,0,0,0,0,0.1201,0.1209,0.1259,0.133,0.1415,0.147,0.1593,0.1674,0.1849,0.1864,0.197,0.2076,0.2178,0.2278,0.2255,0.2426,0.2469,0.2387,0.2352,0.248,0.2492,0.2382,0,0,0,0,0,0,0.1155,0.1196,0.1215,0.1227,0.1258,0.1332,0.1411,0.1531,0.1551,0.1739,0.1809,0.1951,0.2082,0.2176,0.2217,0.2246,0.2181,0.2505,0.25,0.2473,0.2484,0.2494,0.2385,0,0,0,0,0]},{"header":{"parameterUnit":"m.s-1","parameterCategory":2,"la1":30.2991,"la2":30.254,"lo1":-89.0895,"lo2":-89.0444,"dy":0.0017,"dx":0.0017,"nx":28,"ny":28,"refTime":"2024-02-05T09:00:00:Z","depth":"4","parameterNumber":3,"parameterNumberName":"V-component_of_CURRENTS"},"data":[0,0,0,0,0,0,0,0,0,0,0,0,0,0,0,0,0,0,0,0,0,0,0,0,0,0,0,0,0,0,0,0,0,0,0,0,0,0,0,0,0,0,0,0,0,0,0,0,0,0,0,0,0,0,0,0,0,0,0.0233,0.0234,0,0.0214,0.0214,0.0213,0.0171,0.017,0.017,0.0169,0.0161,0.0161,0.0162,0,0,0,0,0,0,0,0,0,0,0,0,0,0.0227,0.0227,0.0233,0.0234,0.0234,0.0214,0.0214,0.0213,0.0171,0.017,0.017,0.0169,0.0161,0.0161,0.0162,0,0,0,0,0,0,0,0,0,0,0,0,0,0.0216,0.0227,0.0233,0.0214,0.0212,0.0214,0.0214,0.0213,0.0171,0.017,0.017,0.0169,0.0161,0.0161,0.0162,0.0176,0,0,0.0162,0.0163,0,0,0,0,0,0,0,0,0.0217,0.0216,0.0217,0.0215,0.0214,0.0198,0.0208,0.0203,0.0171,0.0182,0.0169,0.0169,0.0178,0.0177,0.0168,0.0176,0.0175,0.0163,0.0163,0.0163,0.0163,0,0,0,0,0,0,0,0.0218,0.0216,0.0221,0.0217,0.0215,0.0204,0.0202,0.0207,0.018,0.0181,0.0179,0.0184,0.0177,0.0168,0.0168,0.0175,0.0163,0.0163,0.0163,0.0163,0.0163,0.0163,0,0,0,0,0,0,0.0231,0.0217,0.0222,0.0221,0.0219,0.0205,0.0202,0.02,0.018,0.0178,0.0185,0.0183,0.0168,0.0167,0.0167,0.0175,0.0163,0.0163,0.0163,0.0163,0.0163,0.0163,0,0,0,0,0,0,0.0231,0.0231,0.0222,0.0223,0.0222,0.0207,0.0204,0.02,0.0195,0.0184,0.0181,0.0185,0.0167,0.0167,0.0164,0.0175,0.0163,0.0163,0.0163,0.0163,0.0163,0.0197,0,0,0,0,0,0,0.023,0.0231,0.0235,0.0224,0.0222,0.0225,0.0205,0.02,0.0201,0.0198,0.0183,0.0181,0.0167,0.0164,0.0164,0.0175,0.0164,0.0164,0.0163,0.0163,0.0196,0.0198,0.0199,0,0,0,0,0,0.023,0.0241,0.0235,0.0236,0.0228,0.0226,0.0223,0.0208,0.0202,0.02,0.0185,0.0182,0.0162,0.0164,0.0165,0.0176,0.0164,0.0163,0.0163,0.0195,0.0197,0.0199,0,0,0,0,0,0,0.0243,0.0238,0.0231,0.024,0.0235,0.022,0.0224,0.0216,0.0202,0.0201,0.0184,0.0181,0.018,0.0173,0.0176,0.0172,0.0161,0.0161,0.0185,0.0187,0.0189,0.0204,0.0164,0,0,0,0,0,0.025,0.0254,0.0246,0.0255,0.0253,0.024,0.024,0.0231,0.022,0.0213,0.0202,0.0189,0.0179,0.018,0.0168,0.0176,0.0151,0.018,0.0182,0.0184,0.0194,0.0159,0.0159,0.0162,0.0162,0.0162,0,0,0.0262,0.0259,0.0263,0.0258,0.0252,0.0257,0.0236,0.024,0.0245,0.0217,0.0217,0.0197,0.0181,0.0178,0.0178,0.0175,0.0166,0.0183,0.0185,0.0195,0.0159,0.0159,0.0159,0.0161,0.0161,0.0161,0,0,0.0287,0.028,0.029,0.0289,0.0287,0.0277,0.0282,0.0269,0.0261,0.0261,0.0236,0.0221,0.0214,0.0196,0.019,0.0198,0.0173,0.0195,0.0224,0.019,0.0189,0.0189,0.0142,0.0137,0.02,0.0201,0.0201,0,0.0299,0.0312,0.0294,0.0304,0.0313,0.0289,0.0307,0.0295,0.0283,0.0283,0.0266,0.024,0.0222,0.022,0.0214,0.0204,0.0175,0.022,0.0193,0.0192,0.0191,0.0143,0.0137,0.0202,0.0202,0.0202,0.0202,0,0.033,0.0342,0.035,0.0352,0.0355,0.0368,0.0355,0.0351,0.034,0.0328,0.0318,0.0282,0.0269,0.0256,0.0239,0.0227,0.0205,0.0196,0.0191,0.0193,0.0141,0.0135,0.0204,0.0204,0.0203,0.0203,0,0,0.0353,0.0368,0.0372,0.039,0.0385,0.0396,0.04,0.04,0.0412,0.0381,0.039,0.0352,0.0329,0.0319,0.029,0.0259,0.0214,0.0229,0.0227,0.0188,0.0127,0.0104,0.0094,0.0201,0.02,0.02,0.0089,0,0.0383,0.0418,0.0415,0.0455,0.0475,0.0461,0.0472,0.0469,0.0453,0.045,0.0407,0.0401,0.0355,0.0351,0.031,0.0245,0.0201,0.0244,0.0127,0.0123,0.0107,0.0088,0.0198,0.0084,0.0082,0.0081,0.008,0,0.0416,0.0437,0.0484,0.0519,0.0526,0.0547,0.0567,0.0576,0.0556,0.0542,0.0516,0.0477,0.0431,0.0392,0.0273,0.0303,0.0219,0.0159,0.0153,0.012,0.0089,0.0083,0.0068,0.0069,0.007,0.0071,0.0071,0,0.0452,0.0489,0.0534,0.0547,0.0575,0.06,0.0614,0.0609,0.0631,0.0606,0.0609,0.0538,0.0512,0.0403,0.027,0.0271,0.0131,0.0116,0.0011,0.0007,0.0047,0.0049,0.0026,0.0026,0.0026,0.0026,0.0027,0,0.0488,0.0526,0.0561,0.0589,0.0653,0.0655,0.0713,0.0708,0.0717,0.0745,0.0668,0.066,0.0515,0.0416,0.0286,0.0126,0.0137,0.0011,-0.002,0.0061,0.0065,0.0041,0.0044,0.0022,0.0023,0.0024,0.0025,0,0.0523,0.0544,0.0604,0.0651,0.0676,0.0725,0.079,0.0825,0.0818,0.085,0.0847,0.0754,0.0613,0.045,0.0265,0.0155,0.0002,-0.006,0.0031,0.0006,-0.0108,-0.0101,-0.0189,-0.0191,-0.0192,-0.0193,-0.0194,0,0.0544,0.0579,0.0656,0.0702,0.0732,0.0805,0.0857,0.088,0.0915,0.0903,0.0918,0.0798,0.071,0.0433,0.0251,-0.0011,-0.0048,-0.013,-0.0115,-0.0106,-0.0129,-0.012,-0.0112,-0.0197,-0.0197,-0.0197,-0.0198,0,0.0582,0.0613,0.0661,0.0753,0.0825,0.0905,0.0974,0.1007,0.1029,0.1027,0.0971,0.0822,0.0656,0.0431,0.0223,0.0039,-0.0075,-0.0146,-0.0144,-0.0131,-0.0117,-0.0135,-0.0126,-0.0203,-0.0202,-0.0201,-0.0201,0,0.0611,0.0648,0.0712,0.0794,0.0887,0.0967,0.1007,0.104,0.1073,0.1051,0.103,0.0846,0.0744,0.0455,0.0269,0.0078,0.0027,-0.0026,-0.0031,-0.0028,0.005,0.0094,0.0043,0,0,0,0,0,0.0628,0.0667,0.0743,0.0831,0.0923,0.0978,0.1065,0.1094,0.1117,0.1087,0.1059,0.09,0.0611,0.0487,0.0292,0.0227,-0.0013,-0.001,-0.0078,-0.023,-0.0224,-0.0162,0,0,0,0,0,0,0.0637,0.0705,0.0738,0.0847,0.0909,0.1015,0.1073,0.1094,0.1074,0.1064,0.0915,0.0846,0.0565,0.0718,0.0284,0.0226,0.0155,-0.0142,-0.0146,-0.0233,-0.0228,-0.0223,-0.0157,0,0,0,0,0]}]]